When you browse on this site, cookies collect data to enhance your experience and personalize the content and advertising you see.
Visit our Privacy Policy to learn more. By continuing to use the site, you agree to this use of cookies and data.
  • In Österreich
  • Länderverzeichnis
  • Für 7 Tage
  • Wassertemperatur
  • Satellitenkarten
  • Wetterkarte
  • News
  • Widgets
  • user-avatar
    Anmelden

    Stündliche Wetter Makadi Bey

    Heute, 26 Mai, Sonntag

    Zeit Temperatur Niederschläge Wind Luftdruck Luftfeuchtigkeit
    00:00 +32°C° 0 mm 2 m/S 706 mmHg 23%
    01:00 +31°C° 0 mm 2 m/S 705 mmHg 22%
    02:00 +31°C° 0 mm 2 m/S 705 mmHg 21%
    03:00 +30°C° 0 mm 2 m/S 705 mmHg 22%
    04:00 +30°C° 0 mm 1 m/S 705 mmHg 22%
    05:00 +29°C° 0 mm 1 m/S 705 mmHg 22%
    06:00 +31°C° 0 mm 1 m/S 705 mmHg 20%
    07:00 +33°C° 0 mm 1 m/S 706 mmHg 18%
    08:00 +35°C° 0 mm 1 m/S 706 mmHg 16%
    09:00 +36°C° 0 mm 1 m/S 707 mmHg 14%
    10:00 +39°C° 0 mm 1 m/S 707 mmHg 12%
    11:00 +40°C° 0 mm 1 m/S 707 mmHg 11%
    12:00 +41°C° 0 mm 2 m/S 706 mmHg 10%
    13:00 +41°C° 0 mm 2 m/S 706 mmHg 10%
    14:00 +42°C° 0 mm 2 m/S 706 mmHg 10%
    15:00 +41°C° 0 mm 2 m/S 705 mmHg 10%
    16:00 +42°C° 0 mm 3 m/S 705 mmHg 11%
    17:00 +40°C° 0 mm 3 m/S 705 mmHg 11%
    18:00 +39°C° 0 mm 3 m/S 705 mmHg 13%
    19:00 +38°C° 0 mm 2 m/S 705 mmHg 15%
    20:00 +36°C° 0 mm 2 m/S 705 mmHg 17%
    21:00 +35°C° 0 mm 1 m/S 705 mmHg 17%
    22:00 +34°C° 0 mm 1 m/S 705 mmHg 17%
    23:00 +34°C° 0 mm 1 m/S 705 mmHg 18%

    Morgen, 27 Mai, Montag

    Zeit Temperatur Niederschläge Wind Luftdruck Luftfeuchtigkeit
    00:00 +33°C° 0 mm 1 m/S 705 mmHg 18%
    01:00 +30°C° 0 mm 0 m/S 705 mmHg 19%
    02:00 +29°C° 0 mm 0 m/S 704 mmHg 20%
    03:00 +31°C° 0 mm 1 m/S 704 mmHg 21%
    04:00 +30°C° 0 mm 1 m/S 704 mmHg 21%
    05:00 +30°C° 0 mm 1 m/S 704 mmHg 22%
    06:00 +32°C° 0 mm 1 m/S 705 mmHg 19%
    07:00 +34°C° 0 mm 1 m/S 705 mmHg 16%
    08:00 +36°C° 0 mm 1 m/S 706 mmHg 13%
    09:00 +37°C° 0 mm 1 m/S 706 mmHg 12%
    10:00 +40°C° 0 mm 2 m/S 706 mmHg 10%
    11:00 +41°C° 0 mm 2 m/S 706 mmHg 8%
    12:00 +43°C° 0 mm 3 m/S 706 mmHg 7%
    13:00 +43°C° 0 mm 3 m/S 705 mmHg 7%
    14:00 +44°C° 0 mm 4 m/S 705 mmHg 7%
    15:00 +43°C° 0 mm 4 m/S 705 mmHg 7%
    16:00 +43°C° 0 mm 4 m/S 704 mmHg 8%
    17:00 +42°C° 0 mm 3 m/S 704 mmHg 8%
    18:00 +40°C° 0 mm 3 m/S 704 mmHg 10%
    19:00 +38°C° 0 mm 2 m/S 704 mmHg 11%
    20:00 +37°C° 0 mm 2 m/S 705 mmHg 12%
    21:00 +36°C° 0 mm 2 m/S 705 mmHg 12%
    22:00 +35°C° 0 mm 1 m/S 705 mmHg 12%
    23:00 +34°C° 0 mm 1 m/S 705 mmHg 13%

    übermorgen, 28 Mai, Dienstag

    Zeit Temperatur Niederschläge Wind Luftdruck Luftfeuchtigkeit
    00:00 +33°C° 0 mm 1 m/S 705 mmHg 12%
    01:00 +33°C° 0 mm 1 m/S 704 mmHg 12%
    02:00 +32°C° 0 mm 1 m/S 704 mmHg 11%
    03:00 +31°C° 0 mm 1 m/S 704 mmHg 11%
    04:00 +31°C° 0 mm 1 m/S 703 mmHg 11%
    05:00 +30°C° 0 mm 1 m/S 703 mmHg 11%
    06:00 +32°C° 0 mm 1 m/S 704 mmHg 10%
    07:00 +34°C° 0 mm 1 m/S 704 mmHg 10%
    08:00 +36°C° 0 mm 1 m/S 705 mmHg 9%
    09:00 +37°C° 0 mm 1 m/S 705 mmHg 8%
    10:00 +39°C° 0 mm 1 m/S 705 mmHg 8%
    11:00 +41°C° 0 mm 1 m/S 705 mmHg 7%
    12:00 +41°C° 0 mm 2 m/S 705 mmHg 7%
    13:00 +42°C° 0 mm 2 m/S 705 mmHg 7%
    14:00 +43°C° 0 mm 3 m/S 704 mmHg 6%
    15:00 +43°C° 0 mm 3 m/S 704 mmHg 7%
    16:00 +42°C° 0 mm 3 m/S 704 mmHg 7%
    17:00 +42°C° 0 mm 3 m/S 703 mmHg 8%
    18:00 +39°C° 0 mm 3 m/S 703 mmHg 9%
    19:00 +38°C° 0 mm 3 m/S 704 mmHg 11%
    20:00 +36°C° 0 mm 3 m/S 704 mmHg 12%
    21:00 +36°C° 0 mm 3 m/S 704 mmHg 13%
    22:00 +35°C° 0 mm 2 m/S 704 mmHg 13%
    23:00 +34°C° 0 mm 2 m/S 704 mmHg 13%

    29 Mai, Mittwoch

    Zeit Temperatur Niederschläge Wind Luftdruck Luftfeuchtigkeit
    00:00 +32°C° 0 mm 2 m/S 703 mmHg 12%
    01:00 +32°C° 0 mm 2 m/S 703 mmHg 11%
    02:00 +31°C° 0 mm 2 m/S 703 mmHg 10%
    03:00 +31°C° 0 mm 2 m/S 703 mmHg 11%
    04:00 +30°C° 0 mm 2 m/S 703 mmHg 12%
    05:00 +29°C° 0 mm 1 m/S 703 mmHg 13%
    06:00 +31°C° 0 mm 1 m/S 703 mmHg 12%
    07:00 +33°C° 0 mm 1 m/S 704 mmHg 11%
    08:00 +35°C° 0 mm 1 m/S 705 mmHg 10%
    09:00 +37°C° 0 mm 2 m/S 705 mmHg 10%
    10:00 +39°C° 0 mm 2 m/S 705 mmHg 9%
    11:00 +40°C° 0 mm 2 m/S 705 mmHg 8%
    12:00 +40°C° 0 mm 2 m/S 705 mmHg 8%
    13:00 +42°C° 0 mm 3 m/S 704 mmHg 8%
    14:00 +43°C° 0 mm 3 m/S 704 mmHg 8%
    15:00 +42°C° 0 mm 3 m/S 704 mmHg 9%
    16:00 +42°C° 0 mm 3 m/S 703 mmHg 9%
    17:00 +40°C° 0 mm 3 m/S 703 mmHg 10%
    18:00 +39°C° 0 mm 3 m/S 703 mmHg 12%
    19:00 +37°C° 0 mm 3 m/S 703 mmHg 14%
    20:00 +36°C° 0 mm 3 m/S 704 mmHg 16%
    21:00 +35°C° 0 mm 3 m/S 704 mmHg 16%
    22:00 +35°C° 0 mm 3 m/S 704 mmHg 16%
    23:00 +34°C° 0 mm 2 m/S 704 mmHg 16%

    30 Mai, Donnerstag

    Zeit Temperatur Niederschläge Wind Luftdruck Luftfeuchtigkeit
    00:00 +34°C° 0 mm 2 m/S 704 mmHg 16%
    01:00 +32°C° 0 mm 2 m/S 703 mmHg 17%
    02:00 +32°C° 0 mm 2 m/S 703 mmHg 17%
    03:00 +31°C° 0 mm 2 m/S 703 mmHg 18%
    04:00 +31°C° 0 mm 2 m/S 703 mmHg 19%
    05:00 +30°C° 0 mm 2 m/S 703 mmHg 20%
    06:00 +32°C° 0 mm 2 m/S 704 mmHg 18%
    07:00 +34°C° 0 mm 2 m/S 704 mmHg 16%
    08:00 +36°C° 0 mm 3 m/S 705 mmHg 14%
    09:00 +38°C° 0 mm 3 m/S 705 mmHg 13%
    10:00 +39°C° 0 mm 3 m/S 705 mmHg 11%
    11:00 +42°C° 0 mm 3 m/S 705 mmHg 9%
    12:00 +42°C° 0 mm 3 m/S 705 mmHg 9%
    13:00 +43°C° 0 mm 3 m/S 704 mmHg 9%
    14:00 +43°C° 0 mm 2 m/S 704 mmHg 8%
    15:00 +43°C° 0 mm 3 m/S 704 mmHg 9%
    16:00 +43°C° 0 mm 4 m/S 703 mmHg 10%
    17:00 +42°C° 0 mm 4 m/S 703 mmHg 10%
    18:00 +41°C° 0 mm 4 m/S 703 mmHg 12%
    19:00 +38°C° 0 mm 4 m/S 704 mmHg 13%
    20:00 +37°C° 0 mm 3 m/S 704 mmHg 15%
    21:00 +36°C° 0 mm 3 m/S 704 mmHg 15%
    22:00 +35°C° 0 mm 3 m/S 704 mmHg 15%
    23:00 +35°C° 0 mm 2 m/S 704 mmHg 15%

    31 Mai, Freitag

    Zeit Temperatur Niederschläge Wind Luftdruck Luftfeuchtigkeit
    00:00 +34°C° 0 mm 2 m/S 704 mmHg 16%
    01:00 +32°C° 0 mm 2 m/S 704 mmHg 16%
    02:00 +32°C° 0 mm 1 m/S 703 mmHg 16%
    03:00 +31°C° 0 mm 1 m/S 703 mmHg 16%
    04:00 +31°C° 0 mm 1 m/S 704 mmHg 17%
    05:00 +30°C° 0 mm 1 m/S 704 mmHg 17%
    06:00 +32°C° 0 mm 1 m/S 704 mmHg 15%
    07:00 +34°C° 0 mm 1 m/S 705 mmHg 13%
    08:00 +37°C° 0 mm 2 m/S 705 mmHg 11%
    09:00 +38°C° 0 mm 2 m/S 705 mmHg 10%
    10:00 +40°C° 0 mm 2 m/S 705 mmHg 9%
    11:00 +41°C° 0 mm 2 m/S 705 mmHg 9%
    12:00 +42°C° 0 mm 2 m/S 705 mmHg 9%
    13:00 +43°C° 0 mm 3 m/S 704 mmHg 8%
    14:00 +44°C° 0 mm 3 m/S 704 mmHg 8%
    15:00 +43°C° 0 mm 4 m/S 704 mmHg 9%
    16:00 +43°C° 0 mm 5 m/S 703 mmHg 9%
    17:00 +42°C° 0 mm 5 m/S 703 mmHg 9%
    18:00 +41°C° 0 mm 5 m/S 703 mmHg 10%
    19:00 +40°C° 0 mm 4 m/S 704 mmHg 11%
    20:00 +37°C° 0 mm 3 m/S 704 mmHg 12%
    21:00 +36°C° 0 mm 3 m/S 704 mmHg 12%
    22:00 +36°C° 0 mm 3 m/S 704 mmHg 13%
    23:00 +35°C° 0 mm 3 m/S 704 mmHg 13%
    Mehr zeigen